Location: Bretagne
(43.8474°N, 0.4650°W)
Time: 06:57:04
(UTC+00:00)

IRS-P3 - Pass Details

Date: 15 January 2026
Orbit: 811 x 815 km, 99.0° (Epoch: 10 February)

Event Time Altitude Azimuth Distance (km) Brightness Sun altitude
Rises 17:39:58 0° 154° (SSE) 3,318 7.2 -9.0°
Reaches altitude 10° 17:42:18 10° 151° (SSE) 2,391 6.5 -9.4°
Maximum altitude 17:47:31 63° 71° (ENE) 908 4.1 -10.3°
Drops below altitude 10° 17:52:46 10° 352° (N) 2,408 6.5 -11.2°
Sets 17:55:08 0° 349° (N) 3,344 7.2 -11.6°
